OpenBCM V2.0.2 (Linux)

Packet Radio Mailbox

IZ3LSV

[San Dona' di P. JN]

 Login: GUEST





  
LU9DCE > KEP      17.12.19 18:34l 250 Lines 12241 Bytes #999 (0) @ WW
BID : 5338_LU9DCE
Read: GUEST
Subj: TLE 17 12
Path: IZ3LSV<IK6IHL<IK7NXU<HB9ON<IW2OHX<IQ2LB<IQ5KG<I0OJJ<EA2RCF<LU9DCE
Sent: 191217/1600Z 5338@LU9DCE.TOR.BA.ARG.SOAM LinBPQ6.0.19

            __    _  _  ___  ____   ___  ____    ____  ____  ____
           (  )  / )( \/ _ \(    \ / __)(  __)  (  _ \(  _ \/ ___)
           / (_/\) \/ (\__  )) D (( (__  ) _)    ) _ ( ) _ (\___ \
           \____/\____/(___/(____/ \___)(____)  (____/(____/(____/
               ESTACION DE PACKET RADIO - BUENOS AIRES (GF05OM)
                   BOLETINES INFORMATIVOS PROGRAMADOS (BIP)
                      LINUX - HELLOCODELINUX@GMAIL.COM
+----------------------------------------------------------------------------+
OSCAR 7
1  7530U 74089B   19350.85379212 -.00000029  00000-0  98491-4 0  9995
2  7530 101.7729 316.8294 0012326 358.9635  54.0802 12.53641220 63228
OSCAR 11 (UoSAT 2)
1 14781U 84021B   19350.78298060  .00000053  00000-0  12586-4 0  9998
2 14781  97.5990   6.8144 0009992  86.0844 274.1513 14.83127976925607
OSCAR 19 (LUSAT)
1 20442U 90005G   19350.79986331  .00000001  00000-0  16893-4 0  9992
2 20442  98.6702 292.6591 0011433 341.1015  18.9743 14.32940569562319
EYESAT A
1 22825U 93061C   19350.85274631 -.00000013  00000-0  12866-4 0  9994
2 22825  98.9167 343.7495 0008265 184.7369 175.3735 14.30073593367849
ITAMSAT
1 22826U 93061D   19351.02201833 -.00000017  00000-0  11420-4 0  9998
2 22826  98.9107 343.8918 0009004 173.1425 186.9882 14.30408026368072
RADIO ROSTO
1 23439U 94085A   19350.88796470 -.00000053 +00000-0 -29193-3 0  9991
2 23439 064.8127 183.1057 0145911 077.7268 283.9950 11.27569362028327
JAS 2
1 24278U 96046B   19351.15750312 -.00000044  00000-0 -11549-4 0  9995
2 24278  98.5635 120.1979 0351077 129.5498 233.7224 13.53094992152344
TECHSAT 1B
1 25397U 98043D   19350.87344720 -.00000007 +00000-0 +16188-4 0  9999
2 25397 098.7089 288.9670 0000730 174.9217 185.1969 14.23676124113437
ISS (ZARYA)
1 25544U 98067A   19351.35833381 -.00000111  00000-0  60925-5 0  9994
2 25544  51.6427 173.2198 0007453  45.2681  19.9425 15.50120933203670
PCSAT
1 26931U 01043C   19350.85731461 -.00000043  00000-0  15310-4 0  9994
2 26931  67.0515 256.1788 0007096 264.0917  95.9376 14.30561778950886
SAUDISAT 1C
1 27607U 02058C   19350.90959071 -.00000058 +00000-0 +12717-4 0  9991
2 27607 064.5542 215.5400 0069511 220.7424 138.8468 14.75595474913642
CUTE-1
1 27844U 03031E   19350.67273692  .00000031  00000-0  33880-4 0  9992
2 27844  98.6835 356.1767 0009132 223.1739 136.8724 14.22211003854018
CUBESAT XI 4
1 27848U 03031J   19350.85735950  .00000018  00000-0  28153-4 0  9998
2 27848  98.6909 356.8931 0008871 235.4564 124.5777 14.21801806853886
MOZHAYETS 4
1 27939U 03042A   19351.43527539  .00000123  00000-0  30730-4 0  9999
2 27939  98.0654 124.0001 0012280 207.7934 152.2628 14.66824374867188
CUBESAT XI 5
1 28895U 05043F   19351.14440573  .00000124  00000-0  32636-4 0  9992
2 28895  97.9836 127.9490 0017748 136.2761 223.9851 14.63721136754023
CUTE-1.7+APD II
1 32785U 08021C   19351.14001435  .00000182  00000-0  25254-4 0  9996
2 32785  97.5593 342.3936 0013701  27.2646 332.9288 14.88389585630670
DELFI C3
1 32789U 08021G   19350.87227971 +.00001348 +00000-0 +93180-4 0  9992
2 32789 097.4430 034.8833 0011307 219.0632 140.9780 15.07326741634156
SEEDS
1 32791U 08021J   19350.78435298 +.00000167 +00000-0 +22269-4 0  9996
2 32791 097.5325 348.1677 0013279 001.5155 358.6102 14.90932753631019
YUBELEINY
1 32953U 08025A   19351.53811292  .00000037  00000-0  19437-3 0  9994
2 32953  82.5053  31.6715 0020406  93.7888 266.5525 12.43092964524906
PRISM (HITOMI)
1 33493U 09002B   19350.76734175  .00000717  00000-0  68062-4 0  9992
2 33493  98.1307 278.6415 0013905 308.4109  51.5862 14.96845826592239
KKS-1 (KISEKI)
1 33499U 09002H   19350.87900458 +.00000074 +00000-0 +18964-4 0  9991
2 33499 098.3335 195.2445 0009027 357.8038 002.3129 14.75488509585515
SWISSCUBE
1 35932U 09051B   19351.05167398  .00000105  00000-0  34763-4 0  9998
2 35932  98.5996 162.5245 0007089 336.9047  23.1830 14.56340069543176
BEESAT
1 35933U 09051C   19350.70044999  .00000073  00000-0  27596-4 0  9991
2 35933  98.6008 163.9896 0005582 354.5576   5.5559 14.56422162543232
ITUPSAT 1
1 35935U 09051E   19351.00038501  .00000074  00000-0  28128-4 0  9992
2 35935  98.6117 164.5213 0007810 348.5141  11.5876 14.55575131543011
XIWANG-1 (HOPE-1)
1 36122U 09072B   19350.70268130 -.00000033 +00000-0 +23967-4 0  9995
2 36122 100.0806 344.6226 0006930 288.0247 072.0112 13.16352689480691
TISAT 1
1 36799U 10035E   19350.99432977  .00000463  00000-0  52701-4 0  9993
2 36799  98.1749 149.4362 0011735 206.3095 153.7527 14.91226948511783
JUGNU
1 37839U 11058B   19351.13303969  .00000305  00000-0  20744-4 0  9997
2 37839  19.9620 314.4854 0019038 166.7271 286.5718 14.12666936422941
SRMSAT
1 37841U 11058D   19350.74798400  .00000308  00000-0  23969-4 0  9999
2 37841  19.9732  17.3401 0011989  26.5479 130.6618 14.10645696422299
M-CUBED/EXP-1 PRIME
1 37855U 11061F   19350.88710424 +.00000633 +00000-0 +39606-4 0  9999
2 37855 101.7256 339.6195 0172136 259.5690 098.6083 15.05881313443576
HORYU 2
1 38340U 12025D   19350.88018561 +.00000135 +00000-0 +27746-4 0  9992
2 38340 098.3078 034.6998 0010270 265.8808 094.1227 14.75787702397474
STRAND 1
1 39090U 13009E   19351.13252234  .00000022  00000-0  22899-4 0  9993
2 39090  98.4690 193.8945 0010202 107.6781 252.5519 14.35110271356416
SOMP
1 39134U 13015E   19350.91100879 +.00001018 +00000-0 +54946-4 0  9995
2 39134 064.8617 153.1504 0037896 273.4868 086.1925 15.20577220367765
BEESAT 3
1 39135U 13015F   19350.89534252 +.00000634 +00000-0 +40611-4 0  9996
2 39135 064.8647 174.0765 0042831 276.4858 083.1393 15.17790665367354
BEESAT 2
1 39136U 13015G   19351.52895353  .00000652  00000-0  42344-4 0  9995
2 39136  64.8687 176.3970 0030727 282.5718  77.1972 15.17214357367755
CUBEBUG 1
1 39153U 13018D   19351.55701851  .00000165  00000-0  28494-4 0  9998
2 39153  97.9820  88.7044 0016166 333.2041  26.8334 14.80639742358720
ZACUBE
1 39417U 13066B   19350.82437704  .00000158  00000-0  26079-4 0  9995
2 39417  97.5611 354.1344 0059447 158.7597 201.6105 14.81192720327855
TRITON 1
1 39427U 13066M   19350.84711846  .00000133  00000-0  29455-4 0  9994
2 39427  97.7006 317.2670 0112639 306.0209  53.0598 14.67919750324912
GOMX 1
1 39430U 13066Q   19351.39635572  .00000213  00000-0  47207-4 0  9994
2 39430  97.7709 296.1986 0152167  41.6936 319.5736 14.59324576323101
HUMSAT D
1 39433U 13066T   19350.86204031  .00000512  00000-0  54952-4 0  9997
2 39433  97.5316  30.7481 0031909  57.8292 302.6016 14.92327700330091
CUBEBUG 2
1 39440U 13066AA  19350.97300594  .00000142  00000-0  26861-4 0  9995
2 39440  97.6143 338.8227 0079286 215.2844 144.3104 14.75930966326719
FUNCUBE 1
1 39444U 13066AE  19350.79161755  .00000207  00000-0  31622-4 0  9996
2 39444  97.5575 356.2118 0058716 151.9887 208.4509 14.82027744326756
UWE-3
1 39446U 13066AG  19350.93747735 +.00000157 +00000-0 +27424-4 0  9991
2 39446 097.5871 345.9619 0069760 187.4380 172.5804 14.78465035325450
SPROUT
1 39770U 14029E   19351.53319133  .00000586  00000-0  70626-4 0  9993
2 39770  97.8913  93.7431 0008332 202.6437 157.4424 14.87541979301862
UNISAT 6
1 40012U 14033C   19351.12818370  .00000112  00000-0  24148-4 0  9994
2 40012  97.7310 209.6707 0057161 231.5928 128.0141 14.74044964295418
DUCHIFAT 1
1 40021U 14033M   19351.04846599  .00000228  00000-0  29020-4 0  9991
2 40021  97.9325 276.2952 0013001 166.0950 194.0628 14.90763381298561
QB50P1
1 40025U 14033R   19351.54633852  .00000196  00000-0  26832-4 0  9998
2 40025  97.9100 270.9434 0012387 174.8987 185.2358 14.89038337298381
CHUBUSAT 1
1 40300U 14070C   19351.28514038  .00000601  00000-0  28959-4 0  9993
2 40300  97.3116  60.7191 0020961 134.6692 269.8343 15.22289766283645
NUDT-PHONESAT
1 40900U 15049B   19351.57028307  .00001689  00000-0  73902-4 0  9992
2 40900  97.4349 359.1663 0011020 266.6058 211.8199 15.23399317235342
ZDPS 2A
1 40901U 15049C   19351.37012470  .00000591  00000-0  32392-4 0  9994
2 40901  97.4606 354.6072 0011932 294.4319 175.9336 15.17979942234796
ZDPS 2B
1 40902U 15049D   19351.41708883  .00001049  00000-0  55015-4 0  9996
2 40902  97.4575 352.0093 0011990 292.0162 201.5823 15.17888086234774
XW-2A
1 40903U 15049E   19351.40873309  .00001457  00000-0  35619-4 0  9993
2 40903  97.3148  35.0157 0012720 200.2766 288.3054 15.42426265238253
KAITUO 1A
1 40904U 15049F   19351.45818608  .00000427  00000-0  26010-4 0  9991
2 40904  97.4711 350.4213 0013283 302.0286 214.1634 15.15537836234525
OBJECT G
1 40905U 15049G   19351.40098010  .00000571  00000-0  34635-4 0  9996
2 40905  97.4771 347.7327 0014140 297.3577 196.4173 15.14418014234377
XW-2C
1 40906U 15049H   19351.41187120  .00000596  00000-0  34584-4 0  9999
2 40906  97.4721 350.5468 0013365 293.1007 173.0015 15.15862127234523
XW-2D
1 40907U 15049J   19351.36634390  .00000395  00000-0  23978-4 0  9992
2 40907  97.4702 350.1880 0012671 289.3054 177.9419 15.16066406234534
LILACSAT 2
1 40908U 15049K   19351.44389772  .00000019  00000-0  46612-5 0  9997
2 40908  97.4840 348.8699 0014487 297.5906 222.9774 15.13912507234303
XW-2F
1 40910U 15049M   19351.48979588  .00000907  00000-0  48441-4 0  9991
2 40910  97.4651 352.5970 0013078 279.0402 232.5208 15.17597112234585
XW-2B
1 40911U 15049N   19351.41290916  .00000740  00000-0  41961-4 0  9991
2 40911  97.4716 350.9139 0012633 291.1194 205.7183 15.15997535234435
KAITUO 1B
1 40912U 15049P   19351.43740007  .00000877  00000-0  43910-4 0  9992
2 40912  97.4487 356.4692 0013242 257.2463 239.3583 15.19945845234916
TIANWANG 1C (TW-1C)
1 40926U 15051B   19351.41905407  .00011727  00000-0  14783-3 0  9996
2 40926  97.1121  37.5594 0008647  61.7558  66.4032 15.59714106238445
